Time,TemperatureF,DewpointF,PressureIn,WindDirection,WindDirectionDegrees,WindSpeedMPH,WindSpeedGustMPH,Humidity,HourlyPrecipIn,Conditions,Clouds,dailyrainin,SoftwareType,DateUTC
2013-02-02 00:00:00,24.0,5.0,30.24,West,266,13.0,21.0,47,-99.99,,,-99.99,,2013-02-02 05:00:00,
2013-02-02 00:22:00,24.0,5.0,30.24,West,266,13.0,21.0,47,-99.99,,,-99.99,,2013-02-02 05:22:00,
2013-02-02 00:33:00,24.0,5.0,30.24,West,266,13.0,21.0,47,-99.99,,,-99.99,,2013-02-02 05:33:00,
2013-02-02 00:42:00,24.0,5.0,30.24,West,266,13.0,21.0,47,-99.99,,,-99.99,,2013-02-02 05:42:00,
2013-02-02 00:52:00,24.0,5.0,30.24,West,266,13.0,21.0,47,-99.99,,,-99.99,,2013-02-02 05:52:00,
2013-02-02 01:00:00,23.0,6.0,30.24,West,266,11.0,17.0,50,-99.99,,,-99.99,,2013-02-02 06:00:00,
2013-02-02 01:22:00,23.0,6.0,30.24,West,266,11.0,17.0,50,-99.99,,,-99.99,,2013-02-02 06:22:00,
2013-02-02 01:32:00,23.0,6.0,30.24,West,266,11.0,17.0,50,-99.99,,,-99.99,,2013-02-02 06:32:00,
2013-02-02 01:42:00,23.0,6.0,30.24,West,266,11.0,17.0,50,-99.99,,,-99.99,,2013-02-02 06:42:00,
2013-02-02 01:52:00,23.0,6.0,30.24,West,266,11.0,17.0,50,-99.99,,,-99.99,,2013-02-02 06:52:00,
2013-02-02 02:00:00,22.0,6.0,30.27,West,274,8.0,19.0,51,-99.99,,,-99.99,,2013-02-02 07:00:00,
2013-02-02 02:21:00,22.0,6.0,30.27,West,274,8.0,19.0,51,-99.99,,,-99.99,,2013-02-02 07:21:00,
2013-02-02 02:32:00,22.0,6.0,30.27,West,274,8.0,19.0,51,-99.99,,,-99.99,,2013-02-02 07:32:00,
2013-02-02 02:42:00,22.0,6.0,30.27,West,274,8.0,19.0,51,-99.99,,,-99.99,,2013-02-02 07:42:00,
2013-02-02 02:52:00,22.0,6.0,30.27,West,274,8.0,19.0,51,-99.99,,,-99.99,,2013-02-02 07:52:00,
2013-02-02 03:00:00,22.0,5.0,30.27,West,278,11.0,19.0,52,-99.99,,,-99.99,,2013-02-02 08:00:00,
2013-02-02 03:21:00,22.0,5.0,30.27,West,278,11.0,19.0,52,-99.99,,,-99.99,,2013-02-02 08:21:00,
2013-02-02 03:32:00,22.0,5.0,30.27,West,278,11.0,19.0,52,-99.99,,,-99.99,,2013-02-02 08:32:00,
2013-02-02 03:42:00,22.0,5.0,30.27,West,278,11.0,19.0,52,-99.99,,,-99.99,,2013-02-02 08:42:00,
2013-02-02 03:53:00,22.0,5.0,30.27,West,278,11.0,19.0,52,-99.99,,,-99.99,,2013-02-02 08:53:00,
2013-02-02 04:00:00,21.0,6.0,30.27,West,277,10.0,16.0,56,-99.99,,,-99.99,,2013-02-02 09:00:00,
2013-02-02 04:22:00,21.0,6.0,30.27,West,277,10.0,16.0,56,-99.99,,,-99.99,,2013-02-02 09:22:00,
2013-02-02 04:32:00,21.0,6.0,30.27,West,277,10.0,16.0,56,-99.99,,,-99.99,,2013-02-02 09:32:00,
2013-02-02 04:42:00,21.0,6.0,30.27,West,277,10.0,16.0,56,-99.99,,,-99.99,,2013-02-02 09:42:00,
2013-02-02 04:52:00,21.0,6.0,30.27,West,277,10.0,16.0,56,-99.99,,,-99.99,,2013-02-02 09:52:00,
2013-02-02 05:00:00,20.0,5.0,30.27,WNW,285,9.0,19.0,55,-99.99,,,-99.99,,2013-02-02 10:00:00,
2013-02-02 05:21:00,20.0,5.0,30.27,WNW,285,9.0,19.0,55,-99.99,,,-99.99,,2013-02-02 10:21:00,
2013-02-02 05:32:00,20.0,5.0,30.27,WNW,285,9.0,19.0,55,-99.99,,,-99.99,,2013-02-02 10:32:00,
2013-02-02 05:42:00,20.0,5.0,30.27,WNW,285,9.0,19.0,55,-99.99,,,-99.99,,2013-02-02 10:42:00,
2013-02-02 05:52:00,20.0,5.0,30.27,WNW,285,9.0,19.0,55,-99.99,,,-99.99,,2013-02-02 10:52:00,
2013-02-02 06:00:00,19.0,6.0,30.27,West,280,11.0,14.0,60,-99.99,,,-99.99,,2013-02-02 11:00:00,
2013-02-02 06:22:00,19.0,6.0,30.27,West,280,11.0,14.0,60,-99.99,,,-99.99,,2013-02-02 11:22:00,
2013-02-02 06:32:00,19.0,6.0,30.27,West,280,11.0,14.0,60,-99.99,,,-99.99,,2013-02-02 11:32:00,
2013-02-02 06:42:00,19.0,6.0,30.27,West,280,11.0,14.0,60,-99.99,,,-99.99,,2013-02-02 11:42:00,
2013-02-02 06:52:00,19.0,6.0,30.27,West,280,11.0,14.0,60,-99.99,,,-99.99,,2013-02-02 11:52:00,
2013-02-02 07:00:00,19.0,7.0,30.30,WSW,256,12.0,14.0,63,-99.99,,,-99.99,,2013-02-02 12:00:00,
2013-02-02 07:22:00,19.0,7.0,30.30,WSW,256,12.0,14.0,63,-99.99,,,-99.99,,2013-02-02 12:22:00,
2013-02-02 07:32:00,19.0,7.0,30.30,WSW,256,12.0,14.0,63,-99.99,,,-99.99,,2013-02-02 12:32:00,
2013-02-02 07:42:00,19.0,7.0,30.30,WSW,256,12.0,14.0,63,-99.99,,,-99.99,,2013-02-02 12:42:00,
2013-02-02 07:53:00,19.0,7.0,30.30,WSW,256,12.0,14.0,63,-99.99,,,-99.99,,2013-02-02 12:53:00,
2013-02-02 08:00:00,20.0,7.0,30.30,West,281,11.0,15.0,60,-99.99,,,-99.99,,2013-02-02 13:00:00,
2013-02-02 08:22:00,20.0,7.0,30.30,West,281,11.0,15.0,60,-99.99,,,-99.99,,2013-02-02 13:22:00,
2013-02-02 08:33:00,20.0,7.0,30.30,West,281,11.0,15.0,60,-99.99,,,-99.99,,2013-02-02 13:33:00,
2013-02-02 08:42:00,20.0,7.0,30.30,West,281,11.0,15.0,60,-99.99,,,-99.99,,2013-02-02 13:42:00,
2013-02-02 08:52:00,20.0,7.0,30.30,West,281,11.0,15.0,60,-99.99,,,-99.99,,2013-02-02 13:52:00,
2013-02-02 09:00:00,22.0,6.0,30.30,WNW,300,10.0,17.0,54,-99.99,,,-99.99,,2013-02-02 14:00:00,
2013-02-02 09:22:00,22.0,6.0,30.30,WNW,300,10.0,17.0,54,-99.99,,,-99.99,,2013-02-02 14:22:00,
2013-02-02 09:33:00,22.0,6.0,30.30,WNW,300,10.0,17.0,54,-99.99,,,-99.99,,2013-02-02 14:33:00,
2013-02-02 09:42:00,22.0,6.0,30.30,WNW,300,10.0,17.0,54,-99.99,,,-99.99,,2013-02-02 14:42:00,
2013-02-02 09:52:00,22.0,6.0,30.30,WNW,300,10.0,17.0,54,-99.99,,,-99.99,,2013-02-02 14:52:00,
2013-02-02 10:00:00,24.0,5.0,30.27,WSW,252,7.0,15.0,46,-99.99,,,-99.99,,2013-02-02 15:00:00,
2013-02-02 10:22:00,24.0,5.0,30.27,WSW,252,7.0,15.0,46,-99.99,,,-99.99,,2013-02-02 15:22:00,
2013-02-02 10:33:00,24.0,5.0,30.27,WSW,252,7.0,15.0,46,-99.99,,,-99.99,,2013-02-02 15:33:00,
2013-02-02 10:42:00,24.0,5.0,30.27,WSW,252,7.0,15.0,46,-99.99,,,-99.99,,2013-02-02 15:42:00,
2013-02-02 10:52:00,24.0,5.0,30.27,WSW,252,7.0,15.0,46,-99.99,,,-99.99,,2013-02-02 15:52:00,
2013-02-02 11:00:00,26.0,4.0,30.27,SSW,196,7.0,12.0,39,-99.99,,,-99.99,,2013-02-02 16:00:00,
2013-02-02 11:23:00,26.0,4.0,30.27,SSW,196,7.0,12.0,39,-99.99,,,-99.99,,2013-02-02 16:23:00,
2013-02-02 11:32:00,26.0,4.0,30.27,SSW,196,7.0,12.0,39,-99.99,,,-99.99,,2013-02-02 16:32:00,
2013-02-02 11:42:00,26.0,4.0,30.27,SSW,196,7.0,12.0,39,-99.99,,,-99.99,,2013-02-02 16:42:00,
2013-02-02 11:52:00,26.0,4.0,30.27,SSW,196,7.0,12.0,39,-99.99,,,-99.99,,2013-02-02 16:52:00,
2013-02-02 12:00:00,28.0,5.0,30.21,SSW,196,9.0,16.0,37,-99.99,,,-99.99,,2013-02-02 17:00:00,
2013-02-02 12:23:00,28.0,5.0,30.21,SSW,196,9.0,16.0,37,-99.99,,,-99.99,,2013-02-02 17:23:00,
2013-02-02 12:33:00,28.0,5.0,30.21,SSW,196,9.0,16.0,37,-99.99,,,-99.99,,2013-02-02 17:33:00,
2013-02-02 12:42:00,28.0,5.0,30.21,SSW,196,9.0,16.0,37,-99.99,,,-99.99,,2013-02-02 17:42:00,
2013-02-02 12:53:00,28.0,5.0,30.21,SSW,196,9.0,16.0,37,-99.99,,,-99.99,,2013-02-02 17:53:00,
2013-02-02 13:00:00,30.0,4.0,30.18,WSW,257,12.0,19.0,33,-99.99,,,-99.99,,2013-02-02 18:00:00,
2013-02-02 13:22:00,30.0,4.0,30.18,WSW,257,12.0,19.0,33,-99.99,,,-99.99,,2013-02-02 18:22:00,
2013-02-02 13:32:00,30.0,4.0,30.18,WSW,257,12.0,19.0,33,-99.99,,,-99.99,,2013-02-02 18:32:00,
2013-02-02 13:42:00,30.0,4.0,30.18,WSW,257,12.0,19.0,33,-99.99,,,-99.99,,2013-02-02 18:42:00,
2013-02-02 13:52:00,30.0,4.0,30.18,WSW,257,12.0,19.0,33,-99.99,,,-99.99,,2013-02-02 18:52:00,
2013-02-02 14:00:00,30.0,4.0,30.15,SW,232,16.0,21.0,33,-99.99,,,-99.99,,2013-02-02 19:00:00,
2013-02-02 14:22:00,30.0,4.0,30.15,SW,232,16.0,21.0,33,-99.99,,,-99.99,,2013-02-02 19:22:00,
2013-02-02 14:32:00,30.0,4.0,30.15,SW,232,16.0,21.0,33,-99.99,,,-99.99,,2013-02-02 19:32:00,
2013-02-02 14:42:00,30.0,4.0,30.15,SW,232,16.0,21.0,33,-99.99,,,-99.99,,2013-02-02 19:42:00,
2013-02-02 14:52:00,30.0,4.0,30.15,SW,232,16.0,21.0,33,-99.99,,,-99.99,,2013-02-02 19:52:00,
2013-02-02 15:00:00,31.0,5.0,30.12,SW,231,11.0,18.0,33,-99.99,,,-99.99,,2013-02-02 20:00:00,
2013-02-02 15:22:00,31.0,5.0,30.12,SW,231,11.0,18.0,33,-99.99,,,-99.99,,2013-02-02 20:22:00,
2013-02-02 15:32:00,31.0,5.0,30.12,SW,231,11.0,18.0,33,-99.99,,,-99.99,,2013-02-02 20:32:00,
2013-02-02 15:42:00,31.0,5.0,30.12,SW,231,11.0,18.0,33,-99.99,,,-99.99,,2013-02-02 20:42:00,
2013-02-02 15:52:00,31.0,5.0,30.12,SW,231,11.0,18.0,33,-99.99,,,-99.99,,2013-02-02 20:52:00,
2013-02-02 16:00:00,30.0,6.0,30.12,SW,225,7.0,19.0,35,-99.99,,,-99.99,,2013-02-02 21:00:00,
2013-02-02 16:22:00,30.0,6.0,30.12,SW,225,7.0,19.0,35,-99.99,,,-99.99,,2013-02-02 21:22:00,
2013-02-02 16:32:00,30.0,6.0,30.12,SW,225,7.0,19.0,35,-99.99,,,-99.99,,2013-02-02 21:32:00,
2013-02-02 16:42:00,30.0,6.0,30.12,SW,225,7.0,19.0,35,-99.99,,,-99.99,,2013-02-02 21:42:00,
2013-02-02 16:52:00,30.0,6.0,30.12,SW,225,7.0,19.0,35,-99.99,,,-99.99,,2013-02-02 21:52:00,
2013-02-02 17:00:00,29.0,7.0,30.09,SW,217,11.0,18.0,40,-99.99,,,-99.99,,2013-02-02 22:00:00,
2013-02-02 17:22:00,29.0,7.0,30.09,SW,217,11.0,18.0,40,-99.99,,,-99.99,,2013-02-02 22:22:00,
2013-02-02 17:32:00,29.0,7.0,30.09,SW,217,11.0,18.0,40,-99.99,,,-99.99,,2013-02-02 22:32:00,
2013-02-02 17:42:00,29.0,7.0,30.09,SW,217,11.0,18.0,40,-99.99,,,-99.99,,2013-02-02 22:42:00,
2013-02-02 17:52:00,29.0,7.0,30.09,SW,217,11.0,18.0,40,-99.99,,,-99.99,,2013-02-02 22:52:00,
2013-02-02 18:00:00,29.0,7.0,30.09,SW,222,6.0,23.0,39,-99.99,,,-99.99,,2013-02-02 23:00:00,
2013-02-02 18:22:00,29.0,7.0,30.09,SW,222,6.0,23.0,39,-99.99,,,-99.99,,2013-02-02 23:22:00,
2013-02-02 18:32:00,29.0,7.0,30.09,SW,222,6.0,23.0,39,-99.99,,,-99.99,,2013-02-02 23:32:00,
2013-02-02 18:42:00,29.0,7.0,30.09,SW,222,6.0,23.0,39,-99.99,,,-99.99,,2013-02-02 23:42:00,
2013-02-02 18:52:00,29.0,7.0,30.09,SW,222,6.0,23.0,39,-99.99,,,-99.99,,2013-02-02 23:52:00,
2013-02-02 19:00:00,28.0,7.0,30.09,SW,230,12.0,20.0,41,-99.99,,,-99.99,,2013-02-03 00:00:00,
2013-02-02 19:22:00,28.0,7.0,30.09,SW,230,12.0,20.0,41,-99.99,,,-99.99,,2013-02-03 00:22:00,
2013-02-02 19:32:00,28.0,7.0,30.09,SW,230,12.0,20.0,41,-99.99,,,-99.99,,2013-02-03 00:32:00,
2013-02-02 19:42:00,28.0,7.0,30.09,SW,230,12.0,20.0,41,-99.99,,,-99.99,,2013-02-03 00:42:00,
2013-02-02 19:52:00,28.0,7.0,30.09,SW,230,12.0,20.0,41,-99.99,,,-99.99,,2013-02-03 00:52:00,
2013-02-02 20:00:00,27.0,12.0,30.09,SSW,212,13.0,20.0,54,-99.99,,,-99.99,,2013-02-03 01:00:00,
2013-02-02 20:21:00,27.0,12.0,30.09,SSW,212,13.0,20.0,54,-99.99,,,-99.99,,2013-02-03 01:21:00,
2013-02-02 20:32:00,27.0,12.0,30.09,SSW,212,13.0,20.0,54,-99.99,,,-99.99,,2013-02-03 01:32:00,
2013-02-02 20:42:00,27.0,12.0,30.09,SSW,212,13.0,20.0,54,-99.99,,,-99.99,,2013-02-03 01:42:00,
2013-02-02 20:52:00,27.0,12.0,30.09,SSW,212,13.0,20.0,54,-99.99,,,-99.99,,2013-02-03 01:52:00,
2013-02-02 21:00:00,26.0,18.0,30.09,SW,230,8.0,21.0,72,-99.99,,,-99.99,,2013-02-03 02:00:00,
2013-02-02 21:22:00,26.0,18.0,30.09,SW,230,8.0,21.0,72,-99.99,,,-99.99,,2013-02-03 02:22:00,
2013-02-02 21:32:00,26.0,18.0,30.09,SW,230,8.0,21.0,72,-99.99,,,-99.99,,2013-02-03 02:32:00,
2013-02-02 21:42:00,26.0,18.0,30.09,SW,230,8.0,21.0,72,-99.99,,,-99.99,,2013-02-03 02:42:00,
2013-02-02 21:52:00,26.0,18.0,30.09,SW,230,8.0,21.0,72,-99.99,,,-99.99,,2013-02-03 02:52:00,
2013-02-02 22:00:00,25.0,20.0,30.09,SW,236,10.0,13.0,83,-99.99,,,-99.99,,2013-02-03 03:00:00,
2013-02-02 22:22:00,25.0,20.0,30.09,SW,236,10.0,13.0,83,-99.99,,,-99.99,,2013-02-03 03:22:00,
2013-02-02 22:32:00,25.0,20.0,30.09,SW,236,10.0,13.0,83,-99.99,,,-99.99,,2013-02-03 03:32:00,
2013-02-02 22:42:00,25.0,20.0,30.09,SW,236,10.0,13.0,83,-99.99,,,-99.99,,2013-02-03 03:42:00,
2013-02-02 22:52:00,25.0,20.0,30.09,SW,236,10.0,13.0,83,-99.99,,,-99.99,,2013-02-03 03:52:00,
2013-02-02 23:00:00,24.0,21.0,30.06,SW,231,3.0,11.0,92,-99.99,,,-99.99,,2013-02-03 04:00:00,
2013-02-02 23:22:00,24.0,21.0,30.06,SW,231,3.0,11.0,92,-99.99,,,-99.99,,2013-02-03 04:22:00,
2013-02-02 23:32:00,24.0,21.0,30.06,SW,231,3.0,11.0,92,-99.99,,,-99.99,,2013-02-03 04:32:00,
2013-02-02 23:42:00,24.0,21.0,30.06,SW,231,3.0,11.0,92,-99.99,,,-99.99,,2013-02-03 04:42:00,
2013-02-02 23:52:00,24.0,21.0,30.06,SW,231,3.0,11.0,92,-99.99,,,-99.99,,2013-02-03 04:52:00,